CST,Max TemperatureF,Mean TemperatureF,Min TemperatureF,Max Dew PointF,MeanDew PointF,Min DewpointF,Max Humidity, Mean Humidity, Min Humidity, Max Sea Level PressureIn, Mean Sea Level PressureIn, Min Sea Level PressureIn, Max VisibilityMiles, Mean VisibilityMiles, Min VisibilityMiles, Max Wind SpeedMPH, Mean Wind SpeedMPH, Max Gust SpeedMPH,PrecipitationIn, CloudCover, Events, WindDirDegrees
2012-12-1,43,34,25,31,29,25,100,80,60,29.90,29.80,29.67,10,4,0,17,7,20,T,4,Fog-Rain,320
2012-12-2,47,38,29,35,31,28,100,80,60,29.88,29.71,29.36,10,4,0,21,12,25,0.00,3,Fog,170
2012-12-3,49,35,21,41,28,15,83,63,42,30.03,29.65,29.34,10,10,10,35,17,43,0.02,1,Rain,287
2012-12-4,24,19,14,14,9,7,80,67,54,30.38,30.27,30.04,10,10,10,21,10,25,0.00,1,,350
2012-12-5,40,28,15,28,18,10,80,68,56,30.31,29.94,29.70,10,10,10,20,11,26,T,2,,161
2012-12-6,40,28,16,29,22,13,85,72,59,30.03,29.92,29.72,10,10,10,26,13,31,0.00,2,,301
2012-12-7,20,17,13,16,12,9,92,80,67,30.11,30.06,29.97,10,10,8,13,7,14,0.00,7,,61
2012-12-8,29,20,11,26,17,7,92,85,78,30.11,29.93,29.82,10,4,1,24,12,29,0.01,8,Snow,113
2012-12-9,12,2,-8,7,-2,-13,87,78,68,30.41,30.25,30.05,10,6,2,31,16,40,0.01,5,Snow,352
2012-12-10,17,4,-10,12,2,-14,91,82,73,30.21,29.87,29.67,10,8,1,22,9,25,T,3,Snow,200
2012-12-11,15,9,3,8,5,0,91,81,70,29.92,29.85,29.74,10,10,6,20,7,24,T,6,Snow,76
2012-12-12,26,19,12,19,13,9,92,80,68,30.00,29.82,29.64,10,8,2,20,9,23,T,5,Snow,68
2012-12-13,19,14,8,14,9,3,92,83,73,30.18,30.05,29.93,10,8,0,16,7,18,T,8,Fog-Snow,92
2012-12-14,26,19,12,19,16,8,96,85,74,30.05,29.88,29.72,4,2,0,14,6,16,0.00,5,Fog,162
2012-12-15,26,19,11,21,15,7,100,87,73,29.83,29.73,29.65,10,6,1,22,11,25,0.00,4,,334
2012-12-16,23,21,18,20,17,16,92,88,84,29.89,29.83,29.74,10,6,1,18,6,21,0.00,8,,7
2012-12-17,22,21,19,19,17,14,92,85,77,29.83,29.71,29.58,10,6,1,13,7,16,T,8,Snow,163
2012-12-18,27,20,13,25,20,10,92,87,81,29.73,29.61,29.53,10,3,0,12,5,14,0.03,7,Fog-Snow,169
2012-12-19,23,16,9,18,12,5,92,83,73,30.17,29.93,29.76,10,9,2,24,13,31,T,6,Snow,285
2012-12-20,12,3,-6,9,2,-11,88,82,75,30.29,30.19,30.07,10,8,2,15,5,17,T,3,Snow,325
2012-12-21,14,3,-8,8,-4,-15,88,80,72,30.32,30.22,30.09,10,9,3,15,7,18,0.00,2,,168
2012-12-22,14,8,1,9,4,-3,88,81,73,30.28,30.17,30.07,10,10,6,20,11,22,T,3,Snow,354
2012-12-23,5,3,1,1,-1,-3,91,85,79,30.26,30.19,30.09,10,8,1,16,11,18,T,7,Snow,31
2012-12-24,3,-4,-11,-3,-10,-16,87,79,71,30.50,30.35,30.13,10,9,4,14,9,16,T,2,Snow,336
2012-12-25,8,-2,-12,5,-6,-17,88,79,69,30.60,30.51,30.34,10,8,2,10,5,12,0.01,3,Snow,264
2012-12-26,11,5,-1,5,4,-2,91,84,76,30.41,30.28,30.23,10,5,1,12,7,14,0.01,8,Snow,142
2012-12-27,12,7,1,9,3,-1,95,86,76,30.25,30.15,30.06,10,4,1,12,6,14,T,7,Snow,124
2012-12-28,11,2,-7,5,-4,-15,91,78,64,30.17,30.09,30.00,10,5,0,10,4,12,T,4,Snow,240
2012-12-29,6,0,-7,0,-5,-10,87,82,76,30.17,30.11,30.01,10,9,2,9,4,12,T,2,Snow,257
2012-12-30,24,13,1,19,10,-1,87,79,71,30.17,30.04,29.94,10,10,4,24,10,29,T,3,Snow,293
2012-12-31,13,1,-11,7,-5,-17,90,81,71,30.32,30.24,30.15,10,9,4,16,5,20,T,5,Snow,299